1484931600.57,5772,8.25,74142.0,-7.17,-9.89,-9.71,0,*61
1484931601.75,5773,8.25,74142.5,-7.15,-9.89,-9.79,0,*6A
1484931602.96,5774,8.25,74140.5,-7.17,-9.89,-9.79,0,*6F
1484931604.17,5775,8.25,74140.5,-7.17,-9.89,-9.79,0,*6E
1484931605.37,5776,8.25,74140.5,-7.15,-9.79,-9.79,0,*60
1484931606.56,5777,8.25,74138.0,-7.15,-9.79,-9.75,0,*6D
1484931607.77,5778,8.25,74138.5,-7.17,-9.89,-9.75,0,*6F
1484931608.95,5779,8.25,74136.5,-7.15,-9.89,-9.71,0,*68
1484931610.15,5780,8.25,74136.5,-7.15,-9.75,-9.71,0,*6D
1484931611.34,5781,8.25,74140.0,-7.15,-9.75,-9.71,0,*6C
1484931612.53,5782,8.25,74140.5,-7.15,-9.75,-9.75,0,*6B
1484931613.75,5783,8.25,74140.0,-7.17,-9.79,-9.75,0,*64
1484931614.94,5784,8.19,74136.0,-7.15,-9.89,-9.75,0,*6E
1484931616.12,5785,8.25,74138.3,-7.15,-9.93,-9.89,0,*67
1484931617.34,5786,8.25,74140.0,-7.17,-10.01,-9.93,0,*5E
1484931618.57,5787,8.25,74140.3,-7.17,-10.01,-10.01,0,*6C
1484931619.79,5788,8.25,74136.3,-7.17,-10.01,-9.93,0,*50
1484931621.0,5789,8.25,74140.3,-7.15,-10.15,-10.01,0,*65
1484931622.19,5790,8.25,74140.8,-7.15,-9.93,-9.93,0,*68
1484931623.4,5791,8.25,74138.8,-7.17,-9.93,-9.89,0,*60
1484931624.63,5792,8.25,74140.5,-7.17,-10.01,-9.93,0,*5B
1484931625.81,5793,8.25,74142.5,-7.15,-9.93,-9.79,0,*6F
1484931627.0,5794,8.25,74136.8,-7.15,-9.93,-9.79,0,*68
1484931628.21,5795,8.25,74136.3,-7.17,-9.93,-9.79,0,*6B
1484931629.43,5796,8.25,74140.3,-7.17,-9.93,-9.89,0,*67
1484931630.62,5797,8.25,74136.3,-7.15,-9.93,-10.01,0,*5C
1484931631.85,5798,8.25,74138.8,-7.17,-10.01,-9.93,0,*51
1484931633.07,5799,8.19,74136.0,-7.17,-9.79,-9.79,0,*63
1484931634.26,5800,8.19,74136.3,-7.15,-9.75,-9.71,0,*6A
1484931635.48,5801,8.25,74138.5,-7.17,-9.75,-9.75,0,*6D
1484931636.7,5802,8.25,74138.3,-7.17,-9.79,-9.75,0,*62
1484931637.91,5803,8.25,74138.5,-7.21,-9.79,-9.75,0,*66
1484931639.13,5804,8.25,74138.3,-7.21,-9.79,-9.75,0,*61
1484931640.34,5805,8.25,74140.5,-7.17,-9.89,-9.71,0,*6E
1484931641.56,5806,8.25,74138.3,-7.17,-9.75,-9.71,0,*6E
1484931642.78,5807,8.25,74142.5,-7.17,-9.79,-9.75,0,*67
1484931644.0,5808,8.25,74140.8,-7.17,-9.79,-9.75,0,*68
1484931645.22,5809,8.25,74136.8,-7.17,-9.93,-9.79,0,*61
1484931646.4,5810,8.25,74142.3,-7.15,-9.89,-9.79,0,*60
1484931647.62,5811,8.25,74136.8,-7.17,-9.79,-9.75,0,*60
1484931648.83,5812,8.25,74140.5,-7.17,-9.89,-9.75,0,*6C
1484931650.05,5813,8.25,74140.0,-7.17,-9.75,-9.71,0,*6A
1484931651.27,5814,8.25,74142.8,-7.17,-9.79,-9.75,0,*65
1484931652.49,5815,8.25,74136.5,-7.17,-9.79,-9.75,0,*64
1484931653.7,5816,8.19,74136.8,-7.17,-9.89,-9.75,0,*68
1484931654.91,5817,8.25,74138.5,-7.17,-9.89,-9.75,0,*69
1484931656.12,5818,8.25,74138.5,-7.17,-9.89,-9.89,0,*65
1484931657.34,5819,8.19,74136.8,-7.17,-10.01,-9.89,0,*5C
1484931658.56,5820,8.25,74140.3,-7.17,-10.01,-9.89,0,*56
1484931659.78,5821,8.25,74138.8,-7.17,-10.01,-9.93,0,*5C
1484931660.99,5822,8.25,74142.5,-7.21,-10.05,-9.97,0,*5A
1484931662.2,5823,8.25,74142.3,-7.21,-9.97,-9.93,0,*6C
1484931663.44,5824,8.25,74142.3,-7.21,-9.97,-9.83,0,*6A
1484931664.65,5825,8.19,74136.8,-7.21,-9.93,-9.93,0,*6E
1484931665.89,5826,8.25,74136.0,-7.21,-9.93,-9.83,0,*6C
1484931667.1,5827,8.25,74138.3,-7.21,-9.97,-9.93,0,*68
1484931668.36,5828,8.25,74136.0,-7.21,-9.83,-9.83,0,*63
1484931669.57,5829,8.25,74138.8,-7.21,-9.93,-9.79,0,*66
1484931670.78,5830,8.25,74136.8,-7.21,-10.05,-9.93,0,*5D
1484931672.0,5831,8.25,74136.5,-7.21,-9.97,-9.93,0,*6F
1484931673.23,5832,8.25,74136.5,-7.21,-9.93,-9.83,0,*69
1484931674.44,5833,8.25,74140.0,-7.21,-9.93,-9.79,0,*6D
1484931675.65,5834,8.25,74136.5,-7.23,-9.83,-9.75,0,*65
1484931676.86,5835,8.25,74138.8,-7.23,-9.83,-9.79,0,*68
1484931678.1,5836,8.25,74138.0,-7.21,-9.93,-9.83,0,*6D
1484931679.33,5837,8.25,74142.5,-7.21,-9.83,-9.79,0,*68
1484931680.55,5838,8.25,74138.8,-7.21,-9.79,-9.75,0,*6E
1484931681.79,5839,8.25,74138.8,-7.21,-9.83,-9.79,0,*66
1484931683.0,5840,8.25,74138.0,-7.23,-9.93,-9.83,0,*6E
1484931684.23,5841,8.25,74136.0,-7.21,-9.97,-9.83,0,*69
1484931685.47,5842,8.25,74138.8,-7.21,-9.83,-9.79,0,*6A
1484931686.69,5843,8.25,74138.5,-7.17,-9.71,-9.71,0,*6B
1484931687.93,5844,8.19,74138.5,-7.21,-9.83,-9.79,0,*6C
1484931689.14,5845,8.25,74138.0,-7.21,-9.79,-9.75,0,*64
1484931690.36,5846,8.25,74136.8,-7.21,-9.75,-9.75,0,*6B
1484931691.58,5847,8.25,74136.0,-7.21,-9.79,-9.67,0,*65
1484931692.79,5848,8.25,74140.5,-7.21,-9.75,-9.75,0,*65
1484931694.01,5849,8.25,74140.8,-7.21,-9.79,-9.75,0,*68
1484931695.23,5850,8.25,74138.8,-7.21,-9.79,-9.75,0,*60
1484931696.44,5851,8.25,74142.3,-7.21,-9.79,-9.67,0,*62
1484931697.66,5852,8.25,74136.5,-7.21,-9.75,-9.67,0,*6D
1484931698.88,5853,8.25,74138.3,-7.21,-9.79,-9.67,0,*60
1484931700.09,5854,8.19,74136.0,-7.21,-9.79,-9.75,0,*64
1484931701.33,5855,8.25,74136.5,-7.21,-9.93,-9.83,0,*68
1484931702.54,5856,8.19,74136.8,-7.17,-9.89,-9.79,0,*60
1484931703.75,5857,8.25,74140.5,-7.21,-9.93,-9.93,0,*6B
1484931704.97,5858,8.25,74140.0,-7.21,-10.05,-10.05,0,*64
1484931706.18,5859,8.25,74136.8,-7.21,-10.05,-9.97,0,*56
1484931707.39,5860,8.25,74138.0,-7.21,-10.05,-9.97,0,*5C
1484931708.61,5861,8.25,74140.8,-7.21,-10.09,-10.05,0,*62
1484931709.83,5862,8.19,74136.0,-7.21,-10.09,-10.05,0,*61
1484931711.04,5863,8.25,74140.3,-7.21,-9.97,-9.97,0,*6C
1484931712.25,5864,8.25,74140.0,-7.21,-9.97,-9.97,0,*6B
1484931713.44,5865,8.25,74142.3,-7.23,-10.05,-9.97,0,*5B
1484931714.63,5866,8.25,74138.3,-7.23,-10.09,-10.05,0,*67
1484931715.84,5867,8.19,74136.3,-7.21,-9.97,-9.93,0,*6C
1484931717.05,5868,8.25,74138.3,-7.21,-9.97,-9.97,0,*67
1484931718.24,5869,8.19,74134.5,-7.23,-9.97,-9.97,0,*64
1484931719.43,5870,8.25,74138.5,-7.23,-9.97,-9.93,0,*68
1484931720.64,5871,8.19,74136.3,-7.23,-10.05,-9.83,0,*5B
1484931721.84,5872,8.25,74140.5,-7.23,-10.05,-9.93,0,*59
1484931723.06,5873,8.25,74142.3,-7.21,-10.19,-10.05,0,*60
1484931724.27,5874,8.25,74138.5,-7.23,-10.19,-10.09,0,*69
1484931725.47,5875,8.25,74140.5,-7.23,-10.23,-10.09,0,*61
1484931726.68,5876,8.19,74138.8,-7.23,-10.31,-10.19,0,*60
1484931727.89,5877,8.25,74136.5,-7.25,-10.35,-10.23,0,*6A
1484931729.09,5878,8.25,74136.8,-7.25,-10.35,-10.23,0,*65
1484931730.3,5879,8.25,74140.3,-7.25,-10.27,-10.15,0,*62
1484931731.52,5880,8.25,74140.8,-7.25,-10.15,-10.15,0,*65
1484931732.71,5881,8.25,74140.8,-7.25,-10.09,-9.97,0,*5B
1484931733.93,5882,8.25,74138.8,-7.27,-10.01,-9.97,0,*52
1484931735.12,5883,8.25,74142.3,-7.25,-10.09,-10.09,0,*66
1484931736.35,5884,8.25,74138.5,-7.27,-10.23,-10.09,0,*6B
1484931737.58,5885,8.25,74140.0,-7.27,-10.15,-10.09,0,*6F
1484931738.78,5886,8.25,74140.3,-7.25,-10.09,-10.09,0,*63
1484931739.98,5887,8.25,74138.8,-7.25,-10.09,-10.01,0,*6A
1484931741.17,5888,8.25,74138.3,-7.25,-10.01,-9.97,0,*5A
1484931742.39,5889,8.25,74138.8,-7.27,-10.01,-9.89,0,*56
1484931743.6,5890,8.25,74140.8,-7.25,-10.15,-10.09,0,*69
1484931744.8,5891,8.19,74136.8,-7.25,-10.27,-10.23,0,*61
1484931746.04,5892,8.25,74138.3,-7.27,-10.27,-10.15,0,*65
1484931747.24,5893,8.19,74138.3,-7.25,-10.23,-10.15,0,*62
1484931748.48,5894,8.25,74138.8,-7.27,-10.23,-10.15,0,*67
1484931749.7,5895,8.25,74136.8,-7.27,-10.01,-9.89,0,*5B
1484931750.88,5896,8.25,74142.5,-7.25,-9.97,-9.89,0,*6D
1484931752.09,5897,8.25,74136.3,-7.27,-9.89,-9.89,0,*61
1484931753.3,5898,8.25,74140.3,-7.27,-9.97,-9.89,0,*61
1484931754.52,5899,8.25,74140.0,-7.27,-10.09,-10.09,0,*6F
1484931755.74,5900,8.25,74136.3,-7.27,-10.01,-9.89,0,*56
1484931756.96,5901,8.25,74136.3,-7.27,-10.01,-9.97,0,*58
1484931758.16,5902,8.25,74138.5,-7.27,-9.89,-9.89,0,*6C
1484931759.4,5903,8.25,74138.3,-7.27,-9.97,-9.83,0,*68
1484931760.61,5904,8.25,74140.5,-7.27,-9.97,-9.97,0,*6A
1484931761.8,5905,8.25,74138.8,-7.25,-10.09,-9.97,0,*56
1484931763.03,5906,8.25,74140.5,-7.27,-10.15,-10.09,0,*65
1484931764.27,5907,8.25,74138.8,-7.27,-10.15,-10.01,0,*6C
1484931765.51,5908,8.25,74140.5,-7.27,-10.15,-10.01,0,*63
1484931766.72,5909,8.25,74138.3,-7.27,-10.09,-9.97,0,*58
1484931767.93,5910,8.25,74140.0,-7.27,-9.97,-9.89,0,*60
1484931769.17,5911,8.25,74138.3,-7.27,-9.83,-9.79,0,*6B
1484931770.38,5912,8.25,74136.8,-7.27,-9.97,-9.97,0,*6D
1484931771.59,5913,8.25,74140.8,-7.27,-9.97,-9.89,0,*63
1484931772.83,5914,8.19,74136.5,-7.27,-10.15,-10.01,0,*6E
1484931774.05,5915,8.25,74142.3,-7.27,-10.01,-9.89,0,*52
1484931775.28,5916,8.25,74136.3,-7.27,-10.01,-10.01,0,*69
1484931776.5,5917,8.19,74136.5,-7.27,-10.09,-10.09,0,*68
1484931777.71,5918,8.25,74136.5,-7.27,-10.01,-9.97,0,*50
1484931778.95,5919,8.25,74138.0,-7.27,-9.89,-9.83,0,*6C
1484931780.16,5920,8.25,74140.5,-7.27,-9.89,-9.79,0,*63
1484931781.39,5921,8.25,74140.8,-7.27,-9.83,-9.79,0,*68
1484931782.63,5922,8.25,74138.0,-7.27,-9.83,-9.79,0,*6B
1484931783.84,5923,8.19,74134.5,-7.25,-9.83,-9.79,0,*68
1484931785.08,5924,8.25,74138.5,-7.27,-9.83,-9.79,0,*6D
1484931786.3,5925,8.25,74142.5,-7.27,-9.79,-9.79,0,*69
1484931787.52,5926,8.25,74136.3,-7.27,-9.71,-9.71,0,*6A
1484931788.74,5927,8.19,74134.3,-7.27,-9.79,-9.71,0,*63
1484931789.98,5928,8.19,74136.5,-7.27,-9.89,-9.83,0,*6E
1484931791.19,5929,8.25,74138.3,-7.27,-9.97,-9.79,0,*65
1484931792.38,5930,8.25,74136.5,-7.25,-9.79,-9.67,0,*60
1484931793.6,5931,8.25,74142.0,-7.27,-9.79,-9.71,0,*64
1484931794.8,5932,8.25,74142.3,-7.25,-9.79,-9.71,0,*65
1484931796.04,5933,8.19,74138.5,-7.27,-9.83,-9.79,0,*6B
1484931797.26,5934,8.25,74140.5,-7.27,-9.79,-9.71,0,*61
1484931798.48,5935,8.25,74136.0,-7.27,-9.79,-9.67,0,*67
1484931799.67,5936,8.25,74136.0,-7.25,-9.71,-9.67,0,*6E
1484931800.87,5937,8.25,74138.3,-7.25,-9.79,-9.71,0,*60
1484931802.06,5938,8.25,74136.3,-7.25,-9.79,-9.67,0,*68
1484931803.27,5939,8.25,74136.0,-7.25,-9.67,-9.57,0,*65
1484931804.47,5940,8.25,74136.3,-7.25,-9.71,-9.67,0,*6F
1484931805.7,5941,8.19,74138.0,-7.27,-9.71,-9.71,0,*6B
1484931806.89,5942,8.25,74136.8,-7.25,-9.71,-9.71,0,*6A
1484931808.12,5943,8.25,74138.5,-7.27,-9.71,-9.71,0,*69
1484931809.33,5944,8.25,74138.8,-7.25,-9.83,-9.79,0,*69
1484931810.53,5945,8.25,74138.8,-7.25,-9.71,-9.67,0,*6A
1484931811.74,5946,8.25,74142.5,-7.25,-9.67,-9.57,0,*6D
1484931812.96,5947,8.25,74138.3,-7.23,-9.67,-9.53,0,*6E
1484931814.15,5948,8.25,74138.5,-7.25,-9.67,-9.67,0,*60
1484931815.37,5949,8.25,74138.0,-7.25,-9.71,-9.57,0,*65
1484931816.58,5950,8.25,74138.0,-7.25,-9.67,-9.57,0,*6A
1484931817.82,5951,8.25,74136.5,-7.23,-9.61,-9.53,0,*6F
1484931819.06,5952,8.25,74136.8,-7.23,-9.61,-9.53,0,*6C
1484931820.3,5953,8.25,74136.8,-7.23,-9.61,-9.61,0,*6C
1484931821.51,5954,8.25,74136.0,-7.23,-9.67,-9.61,0,*6D
1484931822.7,5955,8.25,74138.5,-7.23,-9.79,-9.67,0,*65
1484931823.94,5956,8.25,74140.0,-7.21,-9.83,-9.75,0,*62
1484931825.15,5957,8.25,74140.5,-7.23,-9.83,-9.75,0,*61
1484931826.36,5958,8.25,74136.8,-7.23,-9.83,-9.75,0,*6E
1484931827.58,5959,8.25,74136.8,-7.21,-9.79,-9.75,0,*68
1484931828.77,5960,8.25,74138.3,-7.23,-9.79,-9.75,0,*60
1484931829.98,5961,8.25,74138.3,-7.23,-9.93,-9.83,0,*6C
1484931831.19,5962,8.25,74142.3,-7.23,-9.83,-9.75,0,*67
1484931832.41,5963,8.25,74138.0,-7.23,-9.83,-9.79,0,*6A
1484931833.62,5964,8.25,74138.5,-7.23,-9.83,-9.79,0,*6D
1484931834.83,5965,8.25,74136.3,-7.23,-9.83,-9.75,0,*60
1484931836.02,5966,8.25,74136.8,-7.23,-9.93,-9.75,0,*62
1484931837.23,5967,8.25,74136.5,-7.23,-9.83,-9.75,0,*62
1484931838.41,5968,8.25,74140.0,-7.23,-9.93,-9.79,0,*60
1484931839.63,5969,8.25,74140.5,-7.23,-9.83,-9.79,0,*60
1484931840.82,5970,8.25,74138.0,-7.23,-9.75,-9.75,0,*6D
1484931842.01,5971,8.25,74136.3,-7.23,-9.75,-9.75,0,*6C
1484931843.23,5972,8.25,74138.5,-7.21,-9.79,-9.75,0,*61
1484931844.42,5973,8.19,74138.5,-7.23,-9.75,-9.75,0,*6E
1484931845.64,5974,8.25,74140.0,-7.23,-9.75,-9.61,0,*6C
1484931846.83,5975,8.25,74140.0,-7.23,-9.75,-9.67,0,*6B
1484931848.03,5976,8.25,74138.5,-7.23,-9.79,-9.79,0,*6B
1484931849.24,5977,8.25,74140.0,-7.23,-9.83,-9.75,0,*63
1484931850.45,5978,8.25,74138.3,-7.23,-9.83,-9.79,0,*60
1484931851.66,5979,8.19,74138.3,-7.23,-9.97,-9.83,0,*61
1484931852.87,5980,8.19,74136.0,-7.23,-9.93,-9.83,0,*63
1484931854.11,5981,8.25,74140.5,-7.21,-9.83,-9.75,0,*68
1484931855.3,5982,8.25,74138.8,-7.23,-9.79,-9.79,0,*60
1484931856.49,5983,8.25,74138.0,-7.23,-9.79,-9.75,0,*6D
1484931857.69,5984,8.25,74136.5,-7.23,-9.79,-9.79,0,*66
1484931858.9,5985,8.25,74136.8,-7.23,-9.97,-9.83,0,*62
1484931860.09,5986,8.25,74142.0,-7.23,-9.93,-9.79,0,*60
1484931861.28,5987,8.25,74138.8,-7.23,-9.75,-9.75,0,*65
1484931862.52,5988,8.25,74136.0,-7.25,-9.83,-9.83,0,*6C
1484931863.71,5989,8.25,74138.8,-7.23,-9.93,-9.79,0,*6F
1484931864.94,5990,8.25,74140.0,-7.21,-9.83,-9.93,0,*60
1484931866.15,5991,8.25,74136.8,-7.23,-9.83,-9.75,0,*6B
1484931867.37,5992,8.25,74138.8,-7.23,-9.67,-9.61,0,*67
1484931868.58,5993,8.25,74142.0,-7.23,-9.67,-9.49,0,*6C
1484931869.82,5994,8.25,74136.3,-7.23,-9.61,-9.53,0,*66
1484931871.03,5995,8.25,74138.8,-7.23,-9.67,-9.61,0,*60
1484931872.25,5996,8.25,74142.0,-7.21,-9.67,-9.67,0,*67
1484931873.44,5997,8.25,74138.3,-7.23,-9.79,-9.67,0,*6B
1484931874.66,5998,8.25,74138.8,-7.21,-9.75,-9.67,0,*6A
1484931875.85,5999,8.25,74142.0,-7.23,-9.79,-9.75,0,*66
1484931877.09,6000,8.19,74136.0,-7.21,-9.83,-9.93,0,*63
1484931878.3,6001,8.25,74142.8,-7.23,-9.83,-9.79,0,*64
1484931879.51,6002,8.25,74142.0,-7.23,-9.83,-9.75,0,*6B
1484931880.72,6003,8.25,74142.5,-7.23,-9.83,-9.79,0,*66
1484931881.92,6004,8.25,74140.8,-7.23,-9.79,-9.75,0,*68
1484931883.13,6005,8.25,74142.3,-7.23,-9.83,-9.79,0,*60
1484931884.34,6006,8.25,74142.5,-7.23,-9.83,-9.79,0,*63
1484931885.55,6007,8.25,74142.5,-7.23,-9.83,-9.79,0,*62
1484931886.77,6008,8.25,74138.8,-7.23,-9.97,-9.83,0,*6D
1484931887.98,6009,8.25,74140.8,-7.21,-9.93,-9.79,0,*6F
1484931889.19,6010,8.25,74142.0,-7.23,-9.97,-9.83,0,*64
1484931890.4,6011,8.25,74140.5,-7.21,-10.05,-9.93,0,*55
1484931891.59,6012,8.25,74140.8,-7.23,-10.05,-9.93,0,*54
1484931892.81,6013,8.25,74140.0,-7.23,-9.93,-9.83,0,*63
1484931894.0,6014,8.19,74140.0,-7.23,-10.05,-9.93,0,*52
1484931895.19,6015,8.25,74140.3,-7.25,-10.09,-10.09,0,*62
1484931896.38,6016,8.25,74142.0,-7.23,-9.97,-9.97,0,*67
1484931897.59,6017,8.25,74140.5,-7.23,-10.05,-9.83,0,*50
1484931898.81,6018,8.19,74136.3,-7.25,-9.97,-9.83,0,*6A
1484931899.99,6019,8.25,74142.5,-7.25,-9.89,-9.79,0,*61
1484931901.21,6020,8.25,74144.8,-7.25,-9.97,-9.83,0,*61
1484931902.4,6021,8.25,74140.8,-7.25,-10.01,-9.97,0,*52
1484931903.6,6022,8.25,74142.0,-7.25,-10.09,-10.01,0,*6E
1484931904.8,6023,8.25,74142.0,-7.25,-10.09,-10.09,0,*67
1484931906.0,6024,8.25,74140.8,-7.25,-10.01,-10.01,0,*60
1484931907.2,6025,8.25,74142.5,-7.25,-10.09,-10.09,0,*61
1484931908.39,6026,8.19,74138.5,-7.25,-10.01,-9.97,0,*55
1484931909.59,6027,8.25,74140.8,-7.25,-10.01,-9.89,0,*5B
1484931910.81,6028,8.25,74142.8,-7.27,-10.09,-10.01,0,*66
1484931912.03,6029,8.25,74142.5,-7.27,-10.09,-9.97,0,*50
1484931913.22,6030,8.19,74136.5,-7.25,-10.09,-9.97,0,*5A
1484931914.44,6031,8.19,74138.8,-7.27,-10.09,-10.01,0,*6E
1484931915.67,6032,8.25,74140.8,-7.27,-10.01,-10.01,0,*65
1484931916.87,6033,8.25,74144.5,-7.25,-10.01,-9.97,0,*51
1484931918.09,6034,8.19,74136.8,-7.27,-10.01,-9.97,0,*54
1484931919.29,6035,8.19,74136.8,-7.25,-10.15,-10.09,0,*6D
1484931920.49,6036,8.25,74140.3,-7.25,-10.01,-9.97,0,*54
1484931921.72,6037,8.25,74142.0,-7.27,-10.01,-10.01,0,*60
1484931922.94,6038,8.25,74142.5,-7.27,-10.09,-10.01,0,*67
1484931924.17,6039,8.25,74142.3,-7.27,-10.09,-10.01,0,*66
1484931925.39,6040,8.19,74138.5,-7.27,-10.01,-9.97,0,*57
1484931926.59,6041,8.25,74140.0,-7.27,-9.89,-9.89,0,*61
1484931927.78,6042,8.25,74142.3,-7.25,-9.89,-9.89,0,*60
1484931928.99,6043,8.19,74136.3,-7.27,-9.97,-9.89,0,*6C
1484931930.2,6044,8.19,74138.5,-7.27,-9.97,-9.89,0,*6B
1484931931.44,6045,8.19,74138.0,-7.27,-9.97,-9.83,0,*60
1484931932.65,6046,8.25,74138.5,-7.27,-9.89,-9.79,0,*69
1484931933.85,6047,8.25,74136.8,-7.25,-9.89,-9.83,0,*6F
1484931935.06,6048,8.25,74136.5,-7.27,-9.89,-9.79,0,*67
1484931936.3,6049,8.25,74138.0,-7.27,-9.97,-9.83,0,*6C
1484931937.52,6050,8.25,74144.5,-7.27,-10.09,-9.97,0,*5E
1484931938.75,6051,8.25,74140.5,-7.27,-9.89,-9.83,0,*6A
1484931939.96,6052,8.25,74142.8,-7.27,-9.89,-9.89,0,*63
1484931941.19,6053,8.25,74142.0,-7.27,-9.89,-9.83,0,*68
1484931942.43,6054,8.25,74142.3,-7.27,-9.97,-9.83,0,*60
1484931943.64,6055,8.25,74140.3,-7.27,-9.89,-9.97,0,*6B
1484931944.85,6056,8.25,74140.3,-7.27,-10.01,-9.97,0,*50
1484931946.08,6057,8.25,74142.8,-7.27,-10.09,-10.01,0,*6E
1484931947.29,6058,8.25,74140.8,-7.27,-10.09,-9.97,0,*56
1484931948.52,6059,8.25,74140.5,-7.27,-10.01,-10.01,0,*68
1484931949.72,6060,8.25,74142.0,-7.29,-10.05,-10.01,0,*68
1484931950.92,6061,8.19,74136.5,-7.29,-10.05,-10.01,0,*69
1484931952.1,6062,8.25,74142.8,-7.29,-10.05,-9.93,0,*59
1484931953.29,6063,8.25,74142.0,-7.29,-10.05,-10.05,0,*6F
1484931954.49,6064,8.25,74140.5,-7.29,-10.05,-10.01,0,*6C
1484931955.69,6065,8.25,74142.5,-7.29,-10.15,-10.01,0,*6C
1484931956.89,6066,8.25,74142.3,-7.29,-10.15,-9.93,0,*5C
1484931958.1,6067,8.25,74142.5,-7.29,-10.15,-10.01,0,*6E
1484931959.32,6068,8.25,74140.8,-7.31,-10.09,-10.05,0,*61
1484931960.52,6069,8.25,74142.0,-7.29,-10.15,-10.01,0,*60
1484931961.73,6070,8.25,74140.3,-7.29,-10.19,-10.15,0,*61
1484931962.94,6071,8.25,74140.8,-7.29,-10.19,-10.19,0,*6C
1484931964.17,6072,8.25,74146.5,-7.31,-10.19,-10.09,0,*67
1484931965.4,6073,8.25,74146.8,-7.31,-10.31,-10.15,0,*61
1484931966.6,6074,8.25,74142.8,-7.29,-10.19,-10.09,0,*68
1484931967.8,6075,8.19,74142.0,-7.29,-10.19,-10.09,0,*69
1484931969.01,6076,8.25,74140.0,-7.29,-10.15,-10.01,0,*6E
1484931970.2,6077,8.25,74142.3,-7.29,-10.01,-9.93,0,*59
1484931971.38,6078,8.19,74140.5,-7.29,-10.05,-9.97,0,*56
1484931972.57,6079,8.25,74142.8,-7.29,-10.01,-9.93,0,*57
1484931973.79,6080,8.25,74142.0,-7.31,-10.05,-10.05,0,*6B
1484931975.0,6081,8.25,74142.5,-7.29,-10.15,-10.01,0,*66
1484931976.21,6082,8.25,74142.8,-7.31,-10.05,-9.97,0,*5A
1484931977.43,6083,8.25,74140.5,-7.31,-10.09,-10.05,0,*64
1484931978.66,6084,8.25,74140.8,-7.31,-10.23,-10.05,0,*6B
1484931979.86,6085,8.25,74142.8,-7.29,-10.19,-10.05,0,*6A
1484931981.09,6086,8.19,74142.5,-7.31,-10.19,-10.05,0,*60
1484931982.32,6087,8.25,74142.8,-7.31,-10.19,-10.05,0,*61
1484931983.56,6088,8.25,74142.5,-7.31,-10.19,-10.19,0,*63
1484931984.78,6089,8.25,74142.8,-7.31,-10.19,-10.05,0,*6F
1484931986.01,6090,8.25,74144.3,-7.31,-10.19,-10.09,0,*6B
1484931987.25,6091,8.25,74140.3,-7.31,-10.23,-10.19,0,*62
1484931988.48,6092,8.25,74142.5,-7.31,-10.19,-10.05,0,*65
1484931989.7,6093,8.25,74144.5,-7.31,-10.23,-10.09,0,*61
1484931990.94,6094,8.25,74144.8,-7.31,-10.23,-10.19,0,*67
1484931992.15,6095,8.25,74144.8,-7.33,-10.23,-10.19,0,*64
1484931993.34,6096,8.25,74146.3,-7.33,-10.09,-10.05,0,*62
1484931994.54,6097,8.25,74146.3,-7.33,-10.09,-10.05,0,*63
1484931995.74,6098,8.25,74146.5,-7.33,-10.05,-10.05,0,*60
1484931996.93,6099,8.25,74146.5,-7.33,-10.09,-9.97,0,*5E
1484931998.15,6100,8.25,74144.5,-7.31,-10.09,-10.05,0,*6E
1484931999.36,6101,8.25,74146.8,-7.31,-10.05,-10.05,0,*63
1484932000.57,6102,8.19,74140.5,-7.33,-10.19,-10.05,0,*6F
1484932001.8,6103,8.25,74144.8,-7.31,-10.19,-10.05,0,*6C
1484932003.02,6104,8.25,74146.3,-7.31,-10.09,-10.05,0,*6A
1484932004.22,6105,8.25,74146.8,-7.33,-10.09,-10.05,0,*69
1484932005.41,6106,8.19,74142.8,-7.33,-10.09,-10.05,0,*6A
1484932006.62,6107,8.25,74144.3,-7.33,-10.19,-10.05,0,*6A
1484932007.84,6108,8.25,74146.3,-7.35,-10.09,-9.97,0,*51
1484932009.08,6109,8.25,74146.3,-7.35,-10.15,-10.01,0,*6A
1484932010.28,6110,8.19,74142.3,-7.33,-10.09,-10.05,0,*6D
1484932011.48,6111,8.25,74146.3,-7.33,-10.19,-10.05,0,*6D
1484932012.72,6112,8.25,74146.5,-7.35,-10.23,-10.15,0,*60
1484932013.94,6113,8.25,74146.3,-7.35,-10.09,-10.09,0,*64
1484932015.13,6114,8.25,74144.5,-7.33,-9.97,-9.97,0,*65
1484932016.32,6115,8.25,74144.3,-7.33,-10.05,-9.97,0,*57
1484932017.52,6116,8.25,74144.0,-7.33,-10.05,-10.05,0,*67
1484932018.72,6117,8.25,74142.3,-7.33,-10.23,-10.05,0,*62
1484932019.95,6118,8.25,74144.0,-7.35,-10.23,-10.23,0,*6F
1484932021.16,6119,8.25,74144.8,-7.33,-10.19,-10.05,0,*65
1484932022.35,6120,8.25,74144.8,-7.33,-10.09,-9.97,0,*5D
1484932023.57,6121,8.25,74144.0,-7.35,-10.01,-9.97,0,*52
1484932024.79,6122,8.25,74146.0,-7.35,-10.09,-9.97,0,*59
1484932025.98,6123,8.25,74142.5,-7.33,-10.05,-9.97,0,*52
1484932027.17,6124,8.25,74140.8,-7.33,-10.05,-9.97,0,*55
1484932028.36,6125,8.25,74142.3,-7.33,-10.05,-9.93,0,*50
1484932029.59,6126,8.25,74144.3,-7.35,-10.01,-9.93,0,*51
1484932030.77,6127,8.25,74142.3,-7.33,-9.93,-9.97,0,*61
1484932031.97,6128,8.19,74140.3,-7.33,-10.09,-9.93,0,*51
1484932033.2,6129,8.25,74144.3,-7.35,-10.23,-10.09,0,*65
1484932034.4,6130,8.25,74146.5,-7.33,-10.23,-10.09,0,*6B
1484932035.64,6131,8.25,74140.5,-7.35,-10.35,-10.23,0,*63
1484932036.84,6132,8.25,74144.0,-7.33,-10.19,-10.05,0,*6C
1484932038.03,6133,8.19,74142.5,-7.33,-10.05,-9.97,0,*53
1484932039.27,6134,8.25,74144.8,-7.35,-10.15,-10.09,0,*6C
1484932040.49,6135,8.25,74144.5,-7.35,-10.09,-9.97,0,*5F
1484932041.7,6136,8.25,74140.8,-7.35,-9.93,-9.93,0,*63
1484932042.9,6137,8.25,74140.8,-7.33,-9.79,-9.79,0,*64
1484932044.16,6138,8.25,74144.5,-7.35,-9.83,-9.83,0,*6D
1484932045.43,6139,8.25,74144.8,-7.35,-9.83,-9.83,0,*6C
1484932046.67,6140,8.25,74142.3,-7.35,-9.93,-9.83,0,*63
1484932047.86,6141,8.19,74142.5,-7.33,-9.75,-9.79,0,*69
1484932049.1,6142,8.25,74146.3,-7.35,-9.93,-9.83,0,*61
1484932050.35,6143,8.19,74138.8,-7.35,-9.97,-9.83,0,*64
1484932051.53,6144,8.25,74142.3,-7.33,-9.93,-9.89,0,*6B
1484932052.72,6145,8.25,74144.5,-7.33,-10.05,-9.93,0,*56
1484932053.91,6146,8.25,74144.3,-7.33,-9.93,-9.89,0,*69
1484932055.1,6147,8.25,74142.0,-7.33,-9.97,-9.89,0,*6C
1484932056.29,6148,8.25,74140.0,-7.33,-10.05,-9.93,0,*5B
1484932057.53,6149,8.25,74142.3,-7.35,-10.15,-10.09,0,*66
1484932058.73,6150,8.25,74146.8,-7.33,-10.19,-10.09,0,*64
1484932059.95,6151,8.25,74144.0,-7.33,-10.31,-10.19,0,*6E
1484932061.18,6152,8.25,74146.8,-7.35,-10.27,-10.15,0,*60
1484932062.39,6153,8.25,74146.5,-7.33,-10.19,-10.05,0,*6B
1484932063.62,6154,8.25,74146.3,-7.35,-10.15,-10.09,0,*6A
1484932064.82,6155,8.25,74144.3,-7.33,-10.09,-10.05,0,*6C
1484932066.05,6156,8.25,74150.0,-7.35,-10.09,-10.01,0,*6D
1484932067.24,6157,8.19,74140.5,-7.33,-9.97,-9.97,0,*62
1484932068.46,6158,8.25,74148.0,-7.35,-10.09,-9.97,0,*54
1484932069.65,6159,8.25,74144.8,-7.33,-10.05,-9.97,0,*5F
1484932070.84,6160,8.25,74146.5,-7.33,-10.05,-9.97,0,*55
1484932072.07,6161,8.25,74148.8,-7.35,-10.15,-10.09,0,*6C
1484932073.31,6162,8.25,74144.8,-7.35,-10.15,-10.09,0,*6F
1484932074.52,6163,8.25,74144.0,-7.33,-10.15,-10.15,0,*65
1484932075.75,6164,8.25,74146.0,-7.35,-10.23,-10.09,0,*6C
1484932076.96,6165,8.25,74144.8,-7.33,-10.19,-10.19,0,*63
1484932078.2,6166,8.25,74144.3,-7.35,-10.27,-10.15,0,*67
1484932079.44,6167,8.25,74142.5,-7.35,-10.15,-10.15,0,*67
1484932080.68,6168,8.25,74146.0,-7.35,-10.15,-10.01,0,*6D
1484932081.91,6169,8.25,74144.3,-7.35,-10.15,-10.09,0,*64
1484932083.11,6170,8.25,74144.5,-7.37,-10.09,-10.05,0,*6F
1484932084.31,6171,8.25,74144.3,-7.37,-10.09,-10.09,0,*62
1484932085.54,6172,8.25,74146.3,-7.35,-10.09,-10.01,0,*6B
1484932086.76,6173,8.25,74146.8,-7.35,-10.09,-10.09,0,*62
1484932087.99,6174,8.25,74144.8,-7.35,-10.09,-10.01,0,*6D
1484932089.2,6175,8.25,74146.3,-7.37,-10.23,-10.15,0,*63
1484932090.41,6176,8.25,74146.0,-7.37,-10.27,-10.15,0,*64
1484932091.62,6177,8.25,74144.3,-7.37,-10.15,-10.01,0,*61
1484932092.82,6178,8.25,74146.0,-7.37,-10.01,-9.97,0,*5C
1484932094.01,6179,8.25,74146.3,-7.37,-10.01,-9.97,0,*5D
1484932095.24,6180,8.25,74144.8,-7.39,-10.01,-10.01,0,*62
1484932096.44,6181,8.25,74146.0,-7.37,-10.01,-10.09,0,*65
1484932097.64,6182,8.25,74146.5,-7.37,-10.01,-9.97,0,*59
1484932098.86,6183,8.25,74144.0,-7.35,-10.01,-9.97,0,*5A
1484932100.09,6184,8.25,74146.8,-7.35,-10.09,-10.01,0,*62
1484932101.33,6185,8.25,74144.0,-7.35,-10.15,-10.01,0,*6E
1484932102.54,6186,8.25,74146.8,-7.37,-10.15,-10.01,0,*6F
1484932103.75,6187,8.25,74144.0,-7.37,-10.15,-10.09,0,*66
1484932104.95,6188,8.25,74146.8,-7.37,-10.23,-10.09,0,*6C
1484932106.16,6189,8.19,74142.0,-7.37,-10.09,-10.01,0,*6D
1484932107.38,6190,8.25,74142.0,-7.35,-10.01,-9.97,0,*58
1484932108.57,6191,8.19,74140.5,-7.37,-10.01,-9.97,0,*5B
1484932109.76,6192,8.25,74144.8,-7.37,-9.97,-9.93,0,*6B
1484932110.95,6193,8.19,74140.8,-7.37,-9.97,-9.93,0,*6A
1484932112.14,6194,8.25,74144.5,-7.37,-9.97,-9.93,0,*6D